Location: R�serve Fauniques des Laurentides
(47.3100°N, 71.1900°W)
Time: 17:20:47
(UTC-04:00)

Cosmos 1674 - Visible Passes

Search period start: 03 August 2015 00:00
Search period end: 13 August 2015 00:00
Orbit: 506 x 531 km, 82.5° (Epoch: 03 August)

Date Brightness Start Highest point End Pass type
(mag) Time Alt. Az. Time Alt. Az. Time Alt. Az.
03 Aug 4.6 03:01:19 10° N 03:04:46 29° ENE 03:08:15 10° SE visible
03 Aug 4.0 04:37:19 10° NW 04:40:27 23° W 04:43:31 10° SW visible
04 Aug 4.8 02:47:15 10° NNE 02:50:32 26° ENE 02:53:51 10° SE visible
04 Aug 3.8 04:22:58 10° NNW 04:26:18 26° W 04:29:25 11° SSW visible
05 Aug 5.0 02:33:11 10° NNE 02:36:17 22° ENE 02:39:25 10° ESE visible
05 Aug 3.6 04:08:39 10° NNW 04:12:09 31° W 04:14:39 16° SW visible
06 Aug 5.2 02:19:10 10° NNE 02:22:01 19° ENE 02:24:55 10° ESE visible
06 Aug 3.4 03:54:21 10° NNW 03:57:59 36° W 03:59:56 22° SW visible
07 Aug 5.3 02:05:11 10° NNE 02:07:44 17° ENE 02:10:15 11° ESE visible
07 Aug 3.2 03:40:04 10° NNW 03:43:48 43° W 03:45:17 29° SW visible
08 Aug 5.4 01:51:14 10° NNE 01:53:27 15° ENE 01:55:38 10° E visible
08 Aug 2.9 03:25:47 10° NNW 03:29:36 51° W 03:30:40 38° SW visible
09 Aug 5.5 01:37:24 10° NE 01:39:08 13° ENE 01:41:02 10° E visible
09 Aug 2.8 03:11:32 10° NNW 03:15:24 61° W 03:16:04 51° SW visible
10 Aug 5.6 01:23:45 10° NE 01:24:49 11° ENE 01:26:04 10° E visible
10 Aug 2.6 02:57:16 10° NNW 03:01:12 72° W 03:01:31 67° SW visible
11 Aug 2.6 02:43:02 10° N 02:46:58 86° W 02:46:59 86° WSW visible
12 Aug 2.8 02:28:48 10° N 02:32:29 75° NNE 02:32:29 75° NNE visible
